TITAN 3C TRANSTAGE R/B, 7324

Orbit data source: Space-Track

TITAN 3C TRANSTAGE R/B, 7324 is space debris in GEO originally from a launch on Thu, 30 May 1974 UTC launched from the Air Force Eastern Test Range (AFETR). Debris objects in space refer to the collection of defunct objects orbiting the Earth. Examples of debris include non-operational satellites, rocket bodies, and fragments generated from explosions, collisions, or faulty payload assembly.

Not visible in the next 10 days
Identifier
7324, 1974-039C
Orbit
GEO
Country
Flag of USUS
Related business
Manufacturer
Martin Marietta
Mission
Spacecraft
Bus & Motor
TRANSTAGE, Unknown motor
Mass
~1,950 kg wet, ~1,950 kg dry
Launch date (UTC)
1974-05-30 (52 years ago)
Launch vehicle
Unknown
Launch site
Air Force Eastern Test Range (AFETR)
Object type
Payload
Rocket body
Debris
Shape & HBR
Unknown
Radar Cross Section
Large (>1 m²)

Expand to show TLE details & history
Last TLE update: 6 hours ago

TLE from 6 hours ago
0 TITAN 3C TRANSTAGE R/B
1 07324U 74039C   26133.19064633 -.00000059  00000-0  00000-0 0  9991
2 07324   2.8317 260.7445 0033326  84.5305  17.1704  1.00729311119273
Epoch: 2026-05-13T04:34Z
TLE epoch observation values (Epoch: 2026-05-13T04:34:31.842Z)
Latitude
2.79658°
Longitude
62.96375°
Altitude
35,524.318 km
Speed
3.089 km/s
True Right ascension
00h 10m 12s
True Declination
2° 47' 37"
Sunlit
Object was in daylight at epoch
Visualization orbit readout
Latitude
Unknown
Longitude
Unknown
Altitude
Unknown
Speed
Unknown
Apparent Right ascension
Unknown
Apparent Declination
Unknown
Sunlit
N/A
Visualization observer readout
Local Sidereal Time
19:12:15
Azimuth
Unknown
Elevation
Unknown
Doppler factor
Unknown
Orbital elements
Apogee altitude
35,799.985 km
Perigee altitude
35,519.793 km
Semi-major axis
42,038.026 km
Eccentricity
0.00333
Inclination
2.8317°
RAAN
260.7445°
Arg. of periapsis
84.5305°
True anomaly
17.28359°
Mean anomaly
17.1704°
Eccentric anomaly
17.22695°
Mean motion
0.25181 °/min
Orbital period
1,429.63 mins
BSTAR
0
Loading maneuver chart data...
Computing Atmospheric mass density...
Loading historical data...
Loading historical data...
Loading historical data...
Loading historical data...
Loading historical data...
Loading historical data...
Loading historical data...
Other satellites on launch #39 in the year 1974 (1974-05-30 UTC)

Documentation

Showing up to 5 results
|